x

Big Sable Point, Mi (bsbm4) Weather Station

7:40am - Sun 4th Dec 2016 All times are CST. -6 hours from GMT.

  • Wind
    7mph, 10mph gusts
  • Air Temp 33°f
  • Sea Pressure 1022.4mb
  • Big Sable Point, Mi
  • Big Sable Point, Mi

More Historic Weather Station data

Upgrade to MSW Pro to gain access to the past 30 days of data for over 8000 Wavebouys and Weather Stations around the globe.

Join Pro

Comparision Forecast

View Surf forecast
   
Sun 12/04 7:40am 7 10 mph 1022.4mb 33f
7:30am 8 11 mph 1022.4mb 33f
7:20am 8 9 mph 1022.4mb 33f
7:10am 7 9 mph 1022mb 33f
7:00am 7 10 mph 1022mb 33f
6:40am 8 10 mph 1022mb 33f
6:30am 7 11 mph 1022mb 33f
6:20am 8 11 mph 1022mb 33f
6:10am 7 9 mph 1022.4mb 33f
6:00am 8 10 mph 1022.4mb 33f
5:40am 8 10 mph 1022.4mb 33f
5:30am 6 10 mph 1022.4mb 33f
5:20am 8 11 mph 1022.7mb 33f
5:10am 7 11 mph 1022.7mb 33f
5:00am 9 11 mph 1022.7mb 33f
4:40am 8 13 mph 1023mb 33f
4:30am 8 10 mph 1022.7mb 33f
4:20am 6 11 mph 1023mb 33f
4:10am 8 11 mph 1023mb 33f
4:00am 7 11 mph 1023mb 33f
3:40am 7 9 mph 1023.7mb 34f
3:30am 5 8 mph 1023.7mb 34f
3:20am 2 5 mph 1024mb 34f
3:10am 5 8 mph 1024mb 35f
3:00am 3 6 mph 1024mb 34f
2:40am 3 7 mph 1024.4mb 33f
2:30am 5 8 mph 1024mb 33f
2:20am 3 6 mph 1024mb 33f
2:10am 3 5 mph 1024.4mb 33f
2:00am 3 6 mph 1024.4mb 33f
1:40am 3 6 mph 1024.4mb 33f
1:30am 5 6 mph 1024mb 34f
1:20am 3 5 mph 1024.4mb 33f
1:10am 3 6 mph 1024.4mb 34f
1:00am 6 7 mph 1024.4mb 34f
12:40am 7 9 mph 1024.4mb 34f
12:30am 5 6 mph 1024.4mb 34f
12:20am 3 5 mph 1024.7mb 34f
12:10am 5 6 mph 1024.4mb 34f
12:00am 2 6 mph 1024.4mb 34f
Sat 12/03 11:40pm 3 6 mph 1025.1mb 34f
11:30pm 3 7 mph 1025.1mb 34f
11:20pm 3 8 mph 1025.1mb 35f
11:10pm 6 10 mph 1025.1mb 35f
11:00pm 9 13 mph 1025.1mb 35f
10:40pm 7 10 mph 1025.1mb 35f
10:30pm 6 11 mph 1025.1mb 35f
10:20pm 5 8 mph 1025.1mb 35f
10:10pm 3 7 mph 1025.1mb 35f
10:00pm 6 10 mph 1025.1mb 35f
9:40pm 9 13 mph 1025.1mb 35f
9:30pm 8 10 mph 1025.1mb 35f
9:20pm 7 13 mph 1025.4mb 35f
9:10pm 9 11 mph 1025.1mb 35f
9:00pm 10 15 mph 1025.1mb 35f
8:40pm 10 13 mph 1025.4mb 35f
8:30pm 7 10 mph 1025.1mb 35f
8:20pm 9 14 mph 1025.4mb 35f
8:10pm 7 13 mph 1025.4mb 35f
8:00pm 7 13 mph 1025.4mb 35f
7:40pm 9 14 mph 1025.4mb 35f
7:30pm 9 13 mph 1025.7mb 35f
7:20pm 10 13 mph 1025.4mb 35f
7:10pm 9 14 mph 1025.4mb 35f
7:00pm 10 14 mph 1025.4mb 35f
6:40pm 10 14 mph 1025.7mb 35f
6:30pm 10 14 mph 1025.7mb 35f
6:20pm 10 14 mph 1025.7mb 35f
6:10pm 11 16 mph 1025.7mb 35f
6:00pm 8 16 mph 1025.7mb 35f
5:40pm 9 17 mph 1025.7mb 36f
5:30pm 13 17 mph 1025.7mb 35f
5:20pm 13 16 mph 1025.7mb 36f
5:10pm 13 16 mph 1026.1mb 36f
5:00pm 11 16 mph 1026.1mb 36f
4:40pm 14 18 mph 1026.1mb 36f
4:30pm 11 20 mph 1026.1mb 35f
4:20pm 13 17 mph 1026.1mb 36f
4:10pm 11 16 mph 1026.1mb 36f
4:00pm 11 16 mph 1025.7mb 36f
3:40pm 15 17 mph 1025.7mb 36f
3:30pm 11 16 mph 1026.1mb 36f
3:20pm 11 16 mph 1026.4mb 36f
3:10pm 13 18 mph 1026.4mb 36f
3:00pm 16 18 mph 1026.1mb 36f
2:40pm 15 20 mph 1026.4mb 36f
2:30pm 15 21 mph 1026.1mb 36f
2:20pm 16 20 mph 1026.1mb 36f
2:10pm 14 20 mph 1025.7mb 36f
2:00pm 10 18 mph 1026.1mb 36f
1:40pm 14 17 mph 1025.7mb 36f
1:30pm 15 21 mph 1026.1mb 37f
1:20pm 11 16 mph 1025.7mb 36f
1:10pm 15 17 mph 1025.7mb 36f
1:00pm 10 14 mph 1025.7mb 36f
12:40pm 9 13 mph 1025.4mb 36f
12:30pm 7 9 mph 1025.1mb 36f
12:20pm 3 6 mph 1025.1mb 36f
12:10pm 2 9 mph 1025.1mb 36f
12:00pm 6 13 mph 1025.1mb 36f
11:40am 9 14 mph 1025.1mb 36f
11:30am 9 13 mph 1025.4mb 36f
11:20am 9 13 mph 1025.4mb 36f
11:10am 6 8 mph 1025.7mb 35f
11:00am 3 11 mph 1025.7mb 35f
10:40am 7 10 mph 1026.1mb 36f
10:30am 8 13 mph 1026.1mb 36f
10:20am 9 13 mph 1026.1mb 36f
10:10am 8 11 mph 1026.4mb 36f
10:00am 7 11 mph 1026.4mb 36f
9:40am 9 13 mph 1026.8mb 36f
9:30am 9 13 mph 1026.8mb 36f
9:20am 6 11 mph 1026.8mb 36f
9:10am 13 16 mph 1026.8mb 36f
9:00am 14 20 mph 1026.4mb 36f
8:40am 15 20 mph 1026.4mb 36f
8:30am 10 15 mph 1026.4mb 36f
8:20am 10 16 mph 1026.4mb 35f
8:10am 15 17 mph 1026.4mb 36f
8:00am 13 20 mph 1026.4mb 36f
7:50am 15 21 mph 1026.4mb 37f
7:40am 16 21 mph 1026.4mb 37f
7:30am 11 21 mph 1026.4mb 37f
7:20am 16 21 mph 1026.1mb 37f
7:10am 16 18 mph 1026.1mb 37f
7:00am 17 20 mph 1025.7mb 37f
6:50am 15 17 mph 1025.7mb 37f
6:40am 11 18 mph 1025.7mb 37f
6:30am 14 18 mph 1025.7mb 38f
6:20am 15 18 mph 1025.7mb 37f
6:10am 14 17 mph 1025.7mb 37f
6:00am 14 15 mph 1025.7mb 38f
5:50am 13 16 mph 1025.4mb 37f
5:40am 11 16 mph 1025.4mb 37f
5:30am 10 16 mph 1025.4mb 37f
5:20am 14 17 mph 1025.4mb 38f
5:10am 13 15 mph 1025.4mb 37f
5:00am 11 17 mph 1025.4mb 37f
4:50am 13 16 mph 1025.4mb 38f
4:40am 11 15 mph 1025.4mb 38f
4:30am 13 15 mph 1025.4mb 38f
4:20am 13 14 mph 1025.4mb 38f
4:10am 11 16 mph 1025.4mb 38f
4:00am 11 14 mph 1025.4mb 38f
3:50am 11 16 mph 1025.1mb 37f
3:40am 13 15 mph 1025.1mb 38f
3:30am 11 15 mph 1025.1mb 38f
3:20am 13 17 mph 1025.1mb 38f
3:10am 11 15 mph 1025.1mb 37f
3:00am 13 17 mph 1025.1mb 38f
2:50am 13 15 mph 1025.1mb 38f
2:40am 13 16 mph 1025.4mb 38f
2:30am 10 15 mph 1025.4mb 38f
2:20am 13 15 mph 1025.4mb 38f
2:10am 13 15 mph 1025.1mb 37f
2:00am 14 17 mph 1025.1mb 37f
1:50am 15 18 mph 1025.1mb 38f
1:40am 14 17 mph 1025.1mb 38f
1:30am 14 18 mph 1025.1mb 37f
1:20am 14 18 mph 1025.1mb 38f
1:10am 14 20 mph 1025.1mb 38f
1:00am 15 20 mph 1025.1mb 38f
12:50am 15 20 mph 1025.1mb 38f
12:40am 15 18 mph 1025.1mb 38f
12:30am 16 20 mph 1025.1mb 38f
12:20am 14 18 mph 1025.1mb 38f
12:10am 16 20 mph 1025.1mb 38f
12:00am 13 17 mph 1025.1mb 38f
Fri 12/02 11:50pm 14 18 mph 1025.1mb 38f
11:40pm 14 17 mph 1025.1mb 38f
11:30pm 14 17 mph 1025.1mb 38f
11:20pm 14 18 mph 1025.1mb 38f
11:10pm 13 17 mph 1025.1mb 38f
11:00pm 15 18 mph 1025.1mb 38f
10:50pm 15 18 mph 1025.1mb 38f
10:40pm 14 18 mph 1025.1mb 38f
10:30pm 14 17 mph 1025.1mb 38f
10:20pm 14 17 mph 1025.1mb 38f
10:10pm 14 17 mph 1025.1mb 38f
10:00pm 14 17 mph 1024.7mb 38f
9:50pm 14 16 mph 1024.7mb 38f
9:40pm 14 17 mph 1024.4mb 38f
9:30pm 14 18 mph 1024.4mb 38f
9:20pm 14 18 mph 1024.4mb 38f
9:10pm 16 18 mph 1024.4mb 38f
9:00pm 17 20 mph 1024.4mb 38f
8:50pm 17 20 mph 1024mb 38f
8:40pm 17 20 mph 1024mb 38f
8:30pm 15 20 mph 1024mb 38f
8:20pm 16 20 mph 1024mb 38f
8:10pm 15 18 mph 1024mb 38f
8:00pm 15 18 mph 1024mb 38f
7:50pm 14 16 mph 1024mb 38f
7:40pm 13 15 mph 1024mb 38f
7:30pm 14 17 mph 1024mb 38f
7:20pm 11 15 mph 1024mb 38f
7:10pm 13 16 mph 1024mb 38f
7:00pm 14 17 mph 1024mb 38f
6:50pm 11 20 mph 1024mb 38f
6:40pm 15 18 mph 1024mb 38f
6:30pm 16 18 mph 1023.7mb 38f
6:20pm 15 17 mph 1023.7mb 38f
6:10pm 16 18 mph 1023.7mb 38f
6:00pm 14 18 mph 1023.4mb 37f
5:50pm 13 18 mph 1023.4mb 37f
5:40pm 13 17 mph 1023.4mb 37f
5:30pm 15 17 mph 1023mb 37f
5:20pm 14 17 mph 1023mb 37f
5:10pm 14 18 mph 1023mb 37f
5:00pm 14 18 mph 1023mb 37f
4:50pm 14 17 mph 1023mb 37f
4:40pm 15 20 mph 1022.7mb 38f
4:30pm 14 18 mph 1022.7mb 37f
4:20pm 13 18 mph 1022.7mb 37f
4:10pm 15 17 mph 1022.4mb 37f
4:00pm 15 17 mph 1022.7mb 37f
3:50pm 14 18 mph 1022.4mb 37f
3:40pm 14 18 mph 1022.4mb 37f
3:30pm 15 18 mph 1022.4mb 37f
3:20pm 13 18 mph 1022.4mb 37f
3:10pm 14 20 mph 1022.4mb 37f
3:00pm 14 18 mph 1022mb 37f
2:50pm 15 20 mph 1022mb 37f
2:40pm 11 20 mph 1022mb 37f
2:30pm 11 17 mph 1021.7mb 37f
2:20pm 16 21 mph 1021.7mb 37f
2:10pm 14 18 mph 1021.7mb 37f
2:00pm 11 17 mph 1021.3mb 36f
1:50pm 14 18 mph 1021.3mb 36f
1:40pm 16 18 mph 1021mb 36f
1:30pm 15 20 mph 1021mb 36f
1:20pm 13 17 mph 1021mb 36f
1:10pm 14 17 mph 1021mb 36f
1:00pm 16 18 mph 1021mb 36f
12:50pm 15 18 mph 1020.7mb 36f
12:40pm 13 17 mph 1020.7mb 36f
12:30pm 15 20 mph 1020.7mb 36f
12:20pm 16 17 mph 1020.7mb 36f
12:10pm 15 21 mph 1020.3mb 36f
12:00pm 17 21 mph 1020.3mb 36f
11:50am 16 23 mph 1020.3mb 36f
11:40am 20 22 mph 1020.3mb 36f
11:30am 15 20 mph 1020.3mb 36f
11:20am 17 22 mph 1020mb 35f
11:10am 17 22 mph 1020mb 36f
11:00am 17 21 mph 1020mb 35f
10:50am 16 22 mph 1020.3mb 35f
10:40am 18 22 mph 1020.3mb 35f
10:30am 16 20 mph 1020mb 35f
10:20am 16 22 mph 1020mb 35f
10:10am 18 21 mph 1020mb 35f
10:00am 17 23 mph 1020.3mb 35f
9:50am 17 23 mph 1020mb 35f
9:40am 20 23 mph 1020mb 35f
9:30am 15 24 mph 1019.6mb 35f
9:20am 16 18 mph 1019.6mb 36f
9:10am 16 18 mph 1019.3mb 35f
9:00am 13 20 mph 1019mb 35f
8:50am 15 18 mph 1019mb 35f
8:40am 16 22 mph 1019mb 35f
8:30am 16 25 mph 1018.6mb 35f
8:20am 20 26 mph 1018.6mb 35f
8:10am 16 21 mph 1018.6mb 35f
8:00am 16 24 mph 1018.3mb 35f
7:50am 17 24 mph 1018.3mb 35f
7:40am 22 26 mph 1017.9mb 35f
7:30am 17 24 mph 1017.9mb 35f
7:20am 17 25 mph 1017.9mb 35f
7:10am 17 20 mph 1017.6mb 36f
7:00am 20 24 mph 1017.6mb 36f
6:50am 17 24 mph 1017.6mb 36f
6:40am 18 26 mph 1017.6mb 36f
6:30am 16 25 mph 1017.3mb 36f
6:20am 20 24 mph 1017.3mb 36f
6:10am 20 25 mph 1017.3mb 36f
6:00am 23 26 mph 1016.9mb 36f
5:50am 20 25 mph 1016.6mb 36f
5:40am 16 29 mph 1016.9mb 36f
5:30am 17 25 mph 1016.6mb 37f
5:20am 18 25 mph 1016.6mb 37f
5:10am 20 25 mph 1016.3mb 37f
5:00am 21 28 mph 1016.3mb 37f
4:50am 18 26 mph 1016.3mb 37f
4:40am 21 25 mph 1015.9mb 37f
4:30am 18 25 mph 1015.6mb 37f
4:20am 18 25 mph 1015.6mb 37f
4:10am 17 25 mph 1015.6mb 37f
4:00am 17 24 mph 1015.2mb 37f
3:50am 18 28 mph 1015.2mb 37f
3:40am 17 24 mph 1015.2mb 37f
3:30am 16 24 mph 1015.2mb 37f
3:20am 20 22 mph 1014.9mb 37f
3:10am 20 24 mph 1014.9mb 38f
3:00am 21 23 mph 1014.9mb 38f
2:50am 18 23 mph 1014.9mb 38f
2:40am 21 26 mph 1014.6mb 38f
2:30am 18 24 mph 1014.9mb 38f
2:20am 17 22 mph 1014.6mb 38f
2:10am 18 25 mph 1014.6mb 38f
2:00am 17 22 mph 1014.6mb 38f
1:50am 18 23 mph 1014.6mb 37f
1:40am 18 21 mph 1014.6mb 38f
1:30am 18 25 mph 1014.2mb 38f
1:20am 20 23 mph 1013.9mb 38f
1:10am 20 25 mph 1013.9mb 38f
1:00am 18 25 mph 1013.9mb 38f
12:50am 18 23 mph 1013.5mb 39f
12:40am 20 22 mph 1013.5mb 39f
12:30am 18 23 mph 1013.2mb 39f
12:20am 14 22 mph 1013.2mb 39f
12:10am 17 21 mph 1012.9mb 39f
12:00am 13 21 mph 1013.2mb 38f
Thu 12/01 11:50pm 17 23 mph 1012.9mb 40f
11:40pm 20 26 mph 1012.9mb 40f
11:30pm 21 24 mph 1012.9mb 40f
11:20pm 20 24 mph 1012.9mb 40f
11:10pm 21 25 mph 1012.9mb 40f
11:00pm 21 24 mph 1012.5mb 40f
10:50pm 21 24 mph 1012.5mb 40f
10:40pm 20 26 mph 1012.5mb 40f
10:30pm 22 24 mph 1012.5mb 40f
10:20pm 21 24 mph 1012.2mb 40f
10:10pm 18 23 mph 1012.2mb 40f
10:00pm 21 24 mph 1012.2mb 40f
9:50pm 22 24 mph 1011.9mb 40f
9:40pm 22 26 mph 1011.9mb 40f
9:30pm 22 24 mph 1011.9mb 40f
9:20pm 20 23 mph 1011.9mb 40f
9:10pm 20 24 mph 1011.9mb 40f
9:00pm 22 28 mph 1011.5mb 40f
8:50pm 20 23 mph 1011.5mb 40f
8:40pm 14 24 mph 1011.5mb 39f
8:30pm 22 25 mph 1011.5mb 39f
8:20pm 22 25 mph 1011.5mb 40f
8:10pm 20 31 mph 1011.2mb 40f
8:00pm 20 25 mph 1011.2mb 40f
7:50pm 21 30 mph 1010.8mb 41f
7:40pm 21 28 mph 1010.8mb 40f
7:30pm 23 29 mph 1010.8mb 40f
7:20pm 25 30 mph 1010.8mb 41f
7:11pm 25 30 mph 1010.5mb 42f
7:10pm 25 28 mph 1010.5mb 42f
7:00pm 24 29 mph 1010.5mb 42f
6:50pm 24 29 mph 1010.2mb 42f
6:40pm 24 26 mph 1010.2mb 42f
6:30pm 20 23 mph 1010.2mb 41f
6:20pm 16 24 mph 1010.2mb 40f
6:10pm 22 26 mph 1010.2mb 41f
6:00pm 20 25 mph 1010.2mb 42f
5:50pm 23 28 mph 1010.2mb 42f
5:40pm 23 30 mph 1010.2mb 42f
5:34pm 25 30 mph 1009.8mb 42f
5:30pm 20 24 mph 1009.8mb 42f
5:20pm 21 26 mph 1009.8mb 42f
5:10pm 15 20 mph 1009.8mb 41f
5:00pm 18 28 mph 1009.8mb 40f
4:50pm 28 34 mph 1009.5mb 40f
4:40pm 15 18 mph 1009.5mb 41f
4:30pm 16 25 mph 1009.5mb 39f
4:20pm 25
mph
1009.5mb 40f
4:10pm 23 30 mph 1009.5mb 41f
4:04pm 24 29 mph 1008.8mb 43f
4:00pm 25 26 mph 1008.8mb 43f
3:50pm 22 24 mph 1008.8mb 42f
3:40pm 21 24 mph 1008.8mb 42f
3:30pm 23 25 mph 1008.8mb 42f
3:20pm 21 25 mph 1008.8mb 42f
3:10pm 23 25 mph 1008.5mb 42f
3:00pm 20 26 mph 1008.5mb 42f
2:50pm 21 24 mph 1008.1mb 42f
2:40pm 21 26 mph 1008.1mb 42f
2:30pm 22 25 mph 1008.1mb 42f
2:20pm 23 25 mph 1007.8mb 42f
2:10pm 23 29 mph 1007.8mb 42f
2:03pm 20 29 mph 1007.5mb 42f
2:00pm 21 26 mph 1007.5mb 42f
1:50pm 22 25 mph 1007.5mb 42f
1:40pm 22 26 mph 1007.5mb 42f
1:30pm 21 24 mph 1007.5mb 42f
1:20pm 21 25 mph 1007.1mb 42f
1:10pm 20 25 mph 1007.1mb 42f
1:00pm 22 25 mph 1007.1mb 42f
12:50pm 21 24 mph 1006.8mb 42f
11:50am 22 25 mph 1006.4mb 41f
11:40am 21 24 mph 1006.4mb 41f
11:30am 22 24 mph 1006.1mb 41f
11:20am 20 22 mph 1006.1mb 41f
11:10am 17 21 mph 1006.1mb 41f
11:00am 18 22 mph 1005.8mb 41f
10:50am 20 23 mph 1005.8mb 40f
10:40am 18 22 mph 1005.8mb 40f
10:30am 21 23 mph 1005.8mb 40f
10:20am 22 25 mph 1005.8mb 40f
10:10am 22 25 mph 1005.8mb 40f
10:00am 21 24 mph 1005.8mb 40f
9:50am 22 25 mph 1005.8mb 40f
9:40am 22 24 mph 1005.4mb 40f
9:30am 20 23 mph 1005.4mb 40f
9:20am 21 23 mph 1005.4mb 40f
9:10am 20 23 mph 1005.4mb 40f
9:00am 21 23 mph 1005.1mb 40f
8:50am 21 23 mph 1005.1mb 40f
8:40am 20 22 mph 1004.7mb 40f
8:30am 18 23 mph 1004.7mb 40f
8:20am 22 25 mph 1004.7mb 40f
8:10am 18 23 mph 1004.7mb 40f
8:00am 17 25 mph 1004.7mb 40f
7:50am 18 23 mph 1004.4mb 40f
7:40am 18 23 mph 1004.4mb 40f
7:30am 20 23 mph 1004.4mb 40f
7:20am 21 23 mph 1004.1mb 40f
7:10am 22 25 mph 1004.1mb 40f
7:00am 21 24 mph 1004.1mb 40f
6:50am 22 24 mph 1003.7mb 40f
6:40am 20 24 mph 1003.7mb 40f
6:30am 22 25 mph 1003.7mb 40f
6:20am 22 25 mph 1003.4mb 40f
6:10am 20 23 mph 1003.4mb 40f
6:00am 20 24 mph 1003mb 40f
5:50am 22 23 mph 1003mb 40f
5:40am 17 25 mph 1003mb 40f
5:30am 18 25 mph 1002.7mb 40f
5:20am 20 23 mph 1002.7mb 40f
5:10am 20 24 mph 1002.7mb 39f
5:00am 18 24 mph 1002.4mb 39f
4:50am 18 23 mph 1002.4mb 39f
4:40am 18 24 mph 1002.4mb 39f
4:30am 20 25 mph 1002.4mb 39f
4:20am 20 25 mph 1002mb 39f
4:10am 22 26 mph 1002mb 39f
4:00am 18 26 mph 1002mb 40f
3:50am 21 25 mph 1002mb 39f
3:40am 21 26 mph 1001.7mb 39f
3:30am 18 26 mph 1001.7mb 39f
3:20am 20 26 mph 1001.7mb 39f
3:10am 21 25 mph 1001.7mb 39f
3:00am 18 24 mph 1001.7mb 39f
2:50am 17 24 mph 1002mb 39f
2:40am 16 25 mph 1002mb 39f
2:30am 18 24 mph 1002mb 39f
2:20am 18 25 mph 1001.7mb 39f
2:10am 16 25 mph 1001.7mb 39f
2:00am 18 26 mph 1001.7mb 39f
1:50am 18 25 mph 1001.7mb 39f
1:40am 21 28 mph 1001.7mb 39f
1:30am 20 26 mph 1001.7mb 39f
1:20am 23 28 mph 1001.4mb 40f
1:10am 20 25 mph 1001.4mb 40f
1:00am 21 28 mph 1001.4mb 39f
12:50am 24 28 mph 1001mb 40f
12:40am 20 26 mph 1001mb 40f
12:30am 21 25 mph 1001mb 40f
12:20am 21 28 mph 1001mb 40f
12:10am 20 25 mph 1000.7mb 40f
12:00am 18 25 mph 1001mb 39f
Wed 11/30 11:40pm 18 25 mph 1001mb 40f
11:30pm 16 24 mph 1001mb 40f
11:20pm 20 24 mph 1000.7mb 40f
11:10pm 17 24 mph 1001mb 39f
11:00pm 21 26 mph 1001mb 39f
10:50pm 22 26 mph 1001mb 39f
10:40pm 21 28 mph 1001mb 39f
10:30pm 23 26 mph 1000.7mb 39f
10:20pm 22 28 mph 1000.7mb 39f
10:10pm 24 29 mph 1000.7mb 39f
10:05pm 24 29 mph 1000.7mb 39f
10:00pm 23 29 mph 1000.7mb 40f
9:50pm 25 28 mph 1000.7mb 40f
9:40pm 25 28 mph 1000.7mb 40f
9:30pm 21 26 mph 1001mb 40f
9:20pm 22 26 mph 1001mb 40f
9:10pm 21 25 mph 1001mb 40f
9:00pm 21 28 mph 1001mb 40f
8:50pm 22 26 mph 1001mb 39f
8:40pm 23 28 mph 1001mb 40f
8:30pm 22 26 mph 1001.4mb 39f
8:20pm 25 29 mph 1001.4mb 39f
8:10pm 22 25 mph 1001.7mb 40f
8:00pm 23 25 mph 1001.4mb 40f
7:50pm 23 25 mph 1001.4mb 39f
7:40pm 20 25 mph 1001.7mb 39f
7:30pm 21 26 mph 1001.4mb 39f
7:20pm 22 25 mph 1001.4mb 39f
7:10pm 22 24 mph 1001.7mb 39f
7:00pm 21 24 mph 1001.4mb 40f
6:50pm 18 24 mph 1001.7mb 39f
6:40pm 21 23 mph 1001.7mb 40f
6:30pm 17 22 mph 1001.4mb 40f
6:20pm 21 23 mph 1001.4mb 40f
6:10pm 20 23 mph 1001.4mb 40f
6:00pm 20 23 mph 1001.4mb 40f
5:50pm 21 23 mph 1001.4mb 40f
4:40pm 17 22 mph 1001mb 41f
4:30pm 18 24 mph 1000.7mb 41f
4:20pm 18 23 mph 1000.7mb 41f
4:10pm 16 24 mph 1000.7mb 41f
4:00pm 17 21 mph 1000.7mb 41f
3:50pm 17 21 mph 1000.7mb 41f
3:40pm 17 23 mph 1000.7mb 41f
3:30pm 16 22 mph 1000.7mb 41f
3:20pm 17 22 mph 1000.3mb 41f
3:10pm 18 23 mph 1000.3mb 41f
3:00pm 20 22 mph 1000.3mb 41f
2:50pm 17 22 mph 1000.3mb 41f
2:40pm 16 21 mph 1000mb 42f
2:30pm 16 20 mph 1000mb 42f